OneWeb SL0230

operational
NORAD ID: 48769 Int'l Des: 2021-045 Owner: ONEWEBN Country: UK Constellation: oneweb
LEOCIRCULARPOLARONEWEB_TYPE

关于 OneWeb SL0230

正在加载描述...

实时位置

正在加载3D地球...

即将过境

高度历史

Altitude vs Time

uPlot chart will show altitude changes over time

两行轨道根数

1 48769U 21045C 25304.76459706 .00000143 00000-0 34548-3 0 9999
2 48769 87.8958 304.7989 0001720 92.3599 267.7728 13.15548507214632
Epoch: Oct 31, 2025 • Age: 25 hours

当前状态

高度 1217.4 km
速度 7.24 km/s
星下点 -38.86°S, 34.08°W
发射日期 May 28, 2021
运行时间 4.4 years
类型 internet

技术详情

分类 Payload
质量 148.00 kg
干质量 140.00 kg
总质量 148.00 kg
长度 1.30 m
直径 1.00 m
跨度 5.00 m
形状 Trapezoid+2 pan
制造商 ONEWUS
平台类型 ARROW
阶段状态 In Orbit
所有者/国家 ONEWEBN/UK

大型星座

Loading constellations...